Location: Absher
(46.5583°N, 107.9840°W)
Time: 22:10:11
(UTC+00:00)

Envisat - Pass Details

Date: 12 December 2022
Orbit: 763 x 765 km, 98.2° (Epoch: 05 February)

Event Time Altitude Azimuth Distance (km) Brightness Sun altitude
Rises 00:00:05 0° 217° (SW) 3,220 7.6 -6.1°
Reaches altitude 10° 00:03:40 10° 244° (WSW) 2,301 7.3 -6.7°
Maximum altitude 00:06:04 13° 273° (W) 2,080 6.3 -7.0°
Drops below altitude 10° 00:08:29 10° 301° (WNW) 2,310 6.0 -7.4°
Sets 00:12:07 0° 328° (NNW) 3,243 6.3 -8.0°
